Back to catalog

COSMOS 2041

AliveMilitaryPO
NORAD 20235·PAYLOAD·🇷🇺 Russia

Launched Sep 14, 1989 from Plesetsk Cosmodrome

Loading…

Next Passes (next 24 hours)

TLE

FreshSource: Space-Track

Epoch: Sep 14, 2026, 10:55 UTC

1 20235U 89074D   26257.45511056  .00000040  00000-0  15970-3 0  9998
2 20235  82.5866 152.4868 0007309 254.3343 280.9868 12.64847766707798

Track COSMOS 2041 in real time with AllMySat

Download on the App Store